User: anonymous   Login
Location: Unspecified
(0.0000°N, 0.0000°E)
Time: 06:10:27
(UTC+00:00)
Language:

XW-2D - Orbit

View from above orbital plane
View from above orbital plane
View from above satellite
View from above satellite

Ground track
Ground track

The orbit data is extracted from the following two-line orbital elements,

1 40907U 15049J   20190.87815183  .00000355  00000-0  21727-4 0  9998
2 40907  97.4747 191.6204 0012698 300.8083 110.0723 15.16333639265525
Epoch (UTC): 08 July 2020 21:04:32
Eccentricity: 0.0012698
inclination: 97.4747°
perigee height: 508 km
apogee height: 525 km
right ascension of ascending node: 191.6204°
argument of perigee: 300.8083°
revolutions per day: 15.16333639
mean anomaly at epoch: 110.0723°
orbit number at epoch: 26552

The dashed part of the orbit path shows where the satellite is in the earth's shadow,  

DLR